AAL8256 KBZN-KLAX

Flight info

Callsign AAL8256
Flight time N/A
Altitude 35000
Route MEADO2 DBS PROXI Q842 PICHO/N0442F360 Q842 WINEN/N0441F350 Q73 EEVUN/N0444F360 Q73 HAKMN ANJLL4
Aircraft A321/M-SDE3FGHIRWY/LB1

Departure

Time 2026-05-07 05:13
Airport Bozeman Yellowstone International Airport (KBZN)

Arrival

Time N/A
Airport Los Angeles International Airport (KLAX)
Time Latitude Longitude Altitude Speed Heading
2026-05-07 04:45 45.77976 -111.16157 4456 ft 0 kts 257°
2026-05-07 05:02 45.77977 -111.16150 4456 ft 2 kts 257°
2026-05-07 05:03 45.77981 -111.16124 4455 ft 3 kts 257°
2026-05-07 05:03 45.77986 -111.16095 4455 ft 3 kts 257°
2026-05-07 05:03 45.77990 -111.16067 4455 ft 3 kts 257°
2026-05-07 05:03 45.77992 -111.16056 4455 ft 0 kts 257°
2026-05-07 05:05 45.77992 -111.16058 4455 ft 0 kts 257°
2026-05-07 05:05 45.77991 -111.16064 4455 ft 1 kts 257°
2026-05-07 05:05 45.77989 -111.16077 4455 ft 2 kts 257°
2026-05-07 05:06 45.77986 -111.16094 4455 ft 0 kts 257°
2026-05-07 05:06 45.77985 -111.16095 4455 ft 0 kts 251°
2026-05-07 05:07 45.77977 -111.16092 4455 ft 1 kts 158°
2026-05-07 05:07 45.77977 -111.16067 4455 ft 5 kts 94°
2026-05-07 05:07 45.77962 -111.15988 4455 ft 11 kts 126°
2026-05-07 05:07 45.77936 -111.15887 4455 ft 12 kts 87°
2026-05-07 05:08 45.77893 -111.15783 4456 ft 14 kts 136°
2026-05-07 05:08 45.77819 -111.15679 4456 ft 18 kts 136°
2026-05-07 05:08 45.77707 -111.15525 4457 ft 25 kts 136°
2026-05-07 05:08 45.77572 -111.15339 4457 ft 28 kts 136°
2026-05-07 05:09 45.77431 -111.15147 4458 ft 28 kts 136°
2026-05-07 05:09 45.77286 -111.14953 4461 ft 29 kts 137°
2026-05-07 05:09 45.77141 -111.14757 4462 ft 29 kts 128°
2026-05-07 05:09 45.77003 -111.14547 4466 ft 29 kts 137°
2026-05-07 05:10 45.76926 -111.14411 4471 ft 7 kts 86°
2026-05-07 05:10 45.76958 -111.14339 4478 ft 11 kts 44°
2026-05-07 05:10 45.76970 -111.14322 4474 ft 0 kts 43°
2026-05-07 05:12 45.76978 -111.14311 4475 ft 5 kts 43°
2026-05-07 05:12 45.77013 -111.14264 4476 ft 8 kts 43°
2026-05-07 05:12 45.77065 -111.14234 4475 ft 10 kts 340°
2026-05-07 05:13 45.77178 -111.14390 4467 ft 51 kts 315°
2026-05-07 05:13 45.77602 -111.14976 4458 ft 116 kts 315°
2026-05-07 05:13 45.78313 -111.15971 4464 ft 167 kts 316°
2026-05-07 05:13 45.79165 -111.17066 5233 ft 161 kts 316°
2026-05-07 05:14 45.79978 -111.18168 6008 ft 161 kts 314°
2026-05-07 05:14 45.80790 -111.19325 6568 ft 173 kts 311°
2026-05-07 05:14 45.81689 -111.20618 6903 ft 194 kts 312°
2026-05-07 05:14 45.82711 -111.22078 7158 ft 220 kts 314°
2026-05-07 05:15 45.83864 -111.23717 7574 ft 245 kts 314°
2026-05-07 05:15 45.85127 -111.25506 8185 ft 261 kts 314°
2026-05-07 05:15 45.86434 -111.27351 8930 ft 265 kts 315°
2026-05-07 05:15 45.87755 -111.29211 9692 ft 266 kts 315°
2026-05-07 05:16 45.89055 -111.31128 10253 ft 275 kts 307°
2026-05-07 05:16 45.89869 -111.33687 10504 ft 293 kts 282°
2026-05-07 05:16 45.89778 -111.36655 11029 ft 307 kts 257°
2026-05-07 05:16 45.88714 -111.39365 11607 ft 322 kts 233°
2026-05-07 05:17 45.87154 -111.41716 12215 ft 328 kts 230°
2026-05-07 05:17 45.85544 -111.44049 12890 ft 330 kts 230°
2026-05-07 05:17 45.83904 -111.46381 13567 ft 334 kts 227°
2026-05-07 05:17 45.82016 -111.48394 14158 ft 343 kts 214°
2026-05-07 05:18 45.79830 -111.49858 14722 ft 350 kts 207°
2026-05-07 05:18 45.77580 -111.51229 15302 ft 353 kts 208°
2026-05-07 05:18 45.75316 -111.52624 15879 ft 355 kts 208°
2026-05-07 05:18 45.73036 -111.54036 16462 ft 358 kts 209°
2026-05-07 05:19 45.70739 -111.55457 17026 ft 361 kts 208°
2026-05-07 05:19 45.68418 -111.56889 17536 ft 365 kts 208°
2026-05-07 05:19 45.66068 -111.58340 18083 ft 369 kts 208°
2026-05-07 05:19 45.63697 -111.59800 18573 ft 373 kts 208°
2026-05-07 05:20 45.61305 -111.61270 19037 ft 376 kts 208°
2026-05-07 05:20 45.58897 -111.62748 19524 ft 378 kts 208°
2026-05-07 05:20 45.56465 -111.64239 20012 ft 382 kts 208°
2026-05-07 05:20 45.54045 -111.65721 20508 ft 385 kts 208°
2026-05-07 05:21 45.51571 -111.67232 20999 ft 388 kts 209°
2026-05-07 05:21 45.46563 -111.70287 21927 ft 395 kts 209°
2026-05-07 05:21 45.44025 -111.71838 22414 ft 398 kts 209°